Temp_Advection
nan nan nan nan nan nan nan nan nan nan nan nan nan nan nan nan nan nan nan nan nan nan nan nan nan nan nan nan nan nan nan nan nan nan nan nan nan nan nan nan nan nan nan
nan -1 -1 -0 -0 -1 -2 -1 0 1 1 0 -0 -0 -0 -0 -0 -0 -1 -1 -1 -1 1 2 2 -0 0 0 0 0 0 1 1 1 0 0 1 1 1 1 1 -0 nan
nan -1 -0 -1 -2 -3 -1 1 1 1 0 -0 0 -0 -0 -0 -0 -2 -2 -0 0 0 1 2 1 -0 0 0 -0 1 1 1 1 0 1 1 2 1 1 1 1 -0 nan
nan 0 -2 -2 -1 0 2 1 -1 -1 -0 -0 -0 -0 -1 0 -1 -2 0 -0 -1 0 1 1 1 -0 0 0 0 1 1 1 1 1 2 1 1 1 1 1 0 -1 nan
nan -2 -2 2 2 1 -0 -1 1 1 0 -0 -0 -1 -1 -1 -3 -1 0 1 0 0 0 1 1 1 1 0 1 1 2 2 1 2 2 2 1 1 1 0 0 -0 nan
nan -0 2 0 -1 -0 1 2 1 1 1 1 -1 -2 -1 -1 -1 1 1 1 1 1 1 1 1 1 0 1 1 1 2 1 2 2 2 2 1 1 -0 1 1 0 nan
nan 1 0 -0 -0 2 2 1 0 1 0 -0 -1 -0 1 -1 -1 1 2 1 1 1 1 0 1 1 1 2 2 2 2 2 2 1 1 1 0 0 0 1 1 0 nan
nan -0 1 -0 1 1 0 -0 1 1 1 1 1 1 -0 -2 -0 1 2 1 0 0 1 1 1 2 3 3 2 2 2 2 1 1 0 -0 0 0 0 1 1 0 nan
nan 1 2 2 2 1 1 2 1 -0 0 -0 -0 -1 -0 -0 0 1 0 0 1 1 1 2 3 3 3 2 2 2 1 1 1 0 -0 0 0 0 1 1 1 1 nan
nan 5 3 1 1 1 1 -0 -1 -0 0 -0 -0 0 0 0 0 0 0 1 1 2 3 4 3 2 2 2 2 1 1 0 -0 0 1 0 0 0 0 1 1 1 nan
nan 2 1 0 -0 -1 0 0 1 1 0 0 0 0 1 1 1 1 2 2 2 3 3 3 2 2 1 2 1 0 -0 0 1 1 0 0 0 0 0 0 1 1 nan
nan 1 0 0 1 2 2 1 1 1 1 1 1 1 1 2 2 3 3 2 1 2 3 2 1 1 1 1 0 0 0 0 0 0 0 0 0 0 0 0 0 0 nan
nan 1 1 2 2 1 0 1 1 1 1 1 1 1 2 2 2 2 1 1 1 2 1 1 1 1 0 -0 0 0 0 0 0 0 0 0 0 -0 -0 0 -0 -0 nan
nan 0 1 1 0 0 1 1 1 1 1 1 1 2 2 2 1 1 1 1 1 1 1 1 1 0 0 0 0 0 1 0 0 0 0 0 -0 -0 -0 -0 -1 -0 nan
nan 0 1 1 1 1 1 1 1 1 1 1 2 2 2 1 1 1 1 1 1 0 0 0 0 0 1 0 0 0 0 0 0 -0 -0 0 0 0 -0 -0 -0 -1 nan
nan 1 1 1 1 2 1 1 1 1 1 1 1 1 1 1 1 1 0 0 0 0 0 0 1 0 0 0 0 0 0 -0 0 0 -0 -0 -0 -0 -0 -0 -0 -0 nan
nan 1 1 1 1 1 1 1 1 0 1 1 1 1 1 1 1 1 0 0 0 0 0 0 0 0 0 0 0 0 0 0 0 0 -0 -0 -0 -0 -0 -0 -0 -0 nan
nan 1 0 0 1 1 1 0 1 0 -0 0 1 1 1 0 0 0 0 0 -0 -0 0 0 0 0 0 0 0 0 0 0 -0 -0 -0 -0 -0 -0 -0 -1 -0 -0 nan
nan 1 1 1 1 1 1 1 1 -0 -0 -0 0 1 0 0 0 -0 0 0 -0 -0 -0 -0 -0 -0 0 -0 0 -0 -0 -0 0 -0 -0 -0 -0 -0 -0 -0 -0 -0 nan
nan 1 1 0 -0 0 -0 -0 0 -0 -0 -0 -0 -0 -0 0 0 -0 -0 -0 -0 -0 -0 -0 -0 -0 -0 -0 -0 -0 -0 -0 -0 -0 -0 -0 -0 -0 -0 -0 -0 -1 nan
nan 0 -0 -0 -0 -0 0 -1 -1 -0 -0 0 -0 -0 0 -0 -0 -0 -0 -0 -0 -0 -0 -0 -0 -0 -0 -0 -0 -0 -0 -0 -0 -0 -0 -0 -0 -0 -0 -0 -1 -0 nan
nan 0 0 -0 -0 -0 -0 -0 -0 -0 -0 0 0 0 0 -0 -0 -0 -0 -0 -0 0 0 0 0 0 -0 -0 -0 -0 -0 -0 -0 -0 -0 -0 -0 -0 -0 -0 -0 -0 nan
nan -0 -0 -0 -0 -0 -0 -0 -0 -0 -0 -0 -0 0 -0 -0 -0 -0 -0 -0 -0 -0 -0 0 0 1 0 0 0 0 -0 -0 0 0 -0 -1 -1 -1 -0 -0 -0 -1 nan
nan -0 -0 -0 -0 -0 -1 -0 -0 -1 -1 -0 -0 -0 -0 -0 -0 -0 -0 -0 0 -0 -0 -0 0 0 0 1 1 1 1 0 0 1 1 -0 -0 -0 -1 -1 -1 -1 nan
nan -0 -0 -0 -1 -1 -0 -0 -0 -0 -0 -0 -0 -0 -0 -0 -0 -0 -0 -0 -0 0 -0 -0 -0 -0 -0 0 0 0 1 1 0 0 1 1 1 0 -0 -0 -1 -1 nan
nan nan nan nan nan nan nan nan nan nan nan nan nan nan nan nan nan nan nan nan nan nan nan nan nan nan nan nan nan nan nan nan nan nan nan nan nan nan nan nan nan nan nan
Wind_Speed
32 33 34 36 38 38 44 43 44 42 41 40 40 39 39 38 36 35 34 33 34 41 40 37 35 32 30 31 32 31 27 25 27 26 17 23 23 22 23 21 21 21 20
34 35 37 38 37 42 48 51 52 51 46 43 42 41 41 41 40 40 40 48 42 43 48 52 45 45 34 36 33 29 28 28 27 30 28 28 28 26 25 23 21 21 23
34 36 37 41 40 42 45 44 41 41 43 42 41 45 46 45 42 43 52 43 39 38 41 48 48 37 31 43 39 35 33 31 32 29 30 30 30 26 24 25 24 24 25
37 37 38 42 44 43 42 41 41 40 40 40 41 44 43 42 39 43 40 38 37 38 33 27 21 27 35 35 31 37 34 35 35 30 29 29 26 25 24 21 19 20 21
39 40 44 41 39 39 39 41 42 41 39 39 41 42 41 38 40 42 41 39 39 39 35 34 31 34 34 36 32 40 40 36 31 29 28 26 23 21 18 13 19 17 19
36 39 38 38 40 41 40 39 39 42 41 37 39 39 40 40 41 40 44 43 43 37 36 36 35 34 35 35 34 36 34 31 31 28 25 22 17 18 20 18 16 14 12
31 32 33 34 36 37 37 37 37 37 35 37 39 41 39 39 45 39 39 39 43 43 38 38 39 35 36 34 34 34 34 31 27 24 21 18 17 18 19 16 15 13 14
31 31 32 32 32 30 30 33 33 33 35 34 33 32 33 40 40 35 36 39 37 39 39 38 36 37 36 35 34 33 27 24 22 18 15 18 19 20 18 17 16 17 17
34 33 32 32 31 30 30 29 27 28 29 27 32 32 31 31 27 29 32 35 37 39 37 35 33 32 31 27 28 26 23 19 15 13 15 18 19 19 18 18 17 13 16
34 34 28 28 28 28 26 25 30 27 26 24 25 26 27 29 31 31 31 31 35 36 35 32 29 28 27 25 21 18 16 13 13 15 17 17 17 18 17 18 17 17 14
26 29 29 27 29 29 28 26 25 23 21 24 25 26 26 26 28 30 32 32 33 33 31 30 28 25 22 19 15 12 12 12 12 13 13 15 16 16 18 19 20 20 17
31 33 30 28 29 26 24 24 22 23 23 23 22 23 23 24 24 24 21 19 22 26 28 25 22 19 15 12 11 10 11 11 11 12 13 14 15 17 18 20 20 21 22
19 22 24 23 22 20 19 21 21 21 20 21 21 20 20 19 21 19 17 17 19 20 19 19 14 10 9 10 8 8 8 10 11 12 15 16 17 19 21 21 22 24 25
17 18 19 21 23 22 20 19 17 18 20 21 20 20 20 21 21 22 22 22 22 18 13 11 8 7 6 3 4 7 11 15 16 16 16 17 18 19 21 21 24 26 27
15 16 18 18 18 18 18 16 14 14 13 14 16 18 22 24 23 21 19 17 13 11 10 7 8 9 10 9 10 11 12 13 13 14 15 15 16 17 17 17 20 21 20
14 17 18 18 17 18 17 15 15 9 7 7 9 14 19 16 17 13 9 7 5 5 5 8 8 6 6 7 6 6 9 12 11 12 12 13 14 15 16 17 18 18 19
15 16 15 14 15 15 14 17 20 18 18 15 16 14 13 16 15 13 10 7 5 4 4 4 4 4 5 6 6 6 6 11 17 12 12 13 14 16 17 17 18 19 19
6 8 8 10 12 15 17 21 23 26 29 27 23 21 18 15 12 9 5 2 2 3 2 2 2 2 3 3 5 6 7 9 11 12 13 14 16 17 17 18 18 19 19
14 17 17 18 17 20 23 24 25 26 26 25 21 17 13 11 9 9 11 7 6 4 3 2 1 1 3 4 7 8 10 11 14 15 15 15 16 16 18 18 19 20 20
17 19 22 25 26 26 26 25 24 24 22 20 17 14 12 9 8 6 5 4 4 3 4 2 2 4 6 7 9 11 11 12 14 16 17 18 18 18 19 19 19 19 19
25 25 26 26 24 22 21 21 18 18 17 16 14 11 9 7 7 6 4 3 3 3 4 4 5 7 8 9 11 13 15 16 17 18 19 19 19 19 18 19 19 18 19
22 21 21 20 18 16 17 18 16 15 14 12 11 8 5 4 5 4 3 3 4 5 6 8 8 9 10 11 13 14 15 16 16 17 17 17 17 17 17 17 18 18 18
19 18 18 17 16 15 15 15 13 11 11 10 8 5 4 4 3 3 3 4 6 8 10 11 12 13 13 15 16 15 14 14 15 16 16 16 16 16 16 17 18 18 18
15 15 15 14 13 12 12 12 10 10 10 9 8 6 4 3 3 3 4 7 8 9 11 13 14 15 16 17 17 16 15 16 17 18 16 15 15 16 16 17 17 18 18
11 11 11 11 10 10 10 9 8 8 7 7 6 6 5 4 4 4 6 8 9 11 12 14 15 16 17 17 18 18 18 19 19 18 17 17 16 17 17 17 18 17 18
11 11 11 10 10 9 9 9 8 8 7 6 5 5 4 4 5 7 9 10 11 13 14 15 16 17 17 17 18 17 17 17 15 14 15 15 16 16 16 17 17 18 19
Wind_Direction
204 203 202 203 203 203 207 211 211 212 212 212 215 220 222 226 230 236 243 247 250 258 267 267 270 273 258 259 267 259 248 234 238 238 220 230 233 240 246 254 260 272 268
207 207 211 209 206 209 212 216 217 219 220 220 222 226 229 233 237 241 245 255 256 257 266 272 274 269 262 265 269 247 245 241 239 233 243 239 242 241 244 251 263 268 269
209 212 214 215 214 216 219 219 219 221 223 225 228 231 233 236 240 244 251 249 252 260 269 268 269 248 244 250 257 248 245 239 234 231 240 238 241 239 252 260 264 267 275
215 215 218 220 223 225 224 223 223 224 225 226 228 230 232 235 236 241 241 244 249 261 261 268 251 240 248 253 260 238 241 231 230 237 237 238 237 244 251 256 258 267 271
218 220 224 226 225 226 227 228 230 230 229 229 231 234 235 233 237 242 247 251 257 258 261 259 247 252 259 259 258 235 236 225 229 228 235 234 240 246 255 253 260 270 277
218 224 224 225 227 228 230 230 230 233 234 232 233 236 239 241 245 248 254 255 252 258 264 254 261 264 261 258 245 239 233 228 227 230 233 237 244 243 244 254 260 267 275
220 222 222 221 225 227 228 229 231 231 233 234 237 240 241 245 250 251 255 258 253 257 258 254 260 260 252 243 233 225 221 221 224 232 233 243 246 243 253 257 262 261 265
218 222 221 220 222 222 222 226 227 230 233 235 237 236 239 244 255 254 250 256 251 250 250 255 250 251 243 229 222 213 212 218 223 234 243 251 247 250 258 263 264 269 275
228 220 220 220 217 216 220 221 222 225 229 235 240 250 254 254 253 252 252 249 246 243 245 246 246 240 226 217 216 216 214 221 233 245 251 253 255 259 265 269 271 269 276
228 224 216 217 218 215 214 213 220 228 238 241 247 249 253 253 252 250 248 248 243 246 240 232 221 214 212 208 212 214 225 235 244 248 250 256 264 268 270 271 268 269 273
218 216 214 211 213 218 222 224 224 227 228 236 238 241 244 244 242 244 247 248 243 235 222 205 198 197 197 200 211 223 237 247 247 249 258 262 263 267 269 271 269 269 267
211 213 214 215 216 221 227 217 211 218 223 227 232 236 238 240 240 237 232 228 233 223 202 193 189 188 186 198 214 227 236 246 254 258 258 262 268 274 275 273 276 277 273
214 208 204 206 206 199 207 220 214 215 219 224 223 224 222 218 211 202 203 199 191 186 182 182 182 189 192 210 224 239 250 256 258 264 276 278 276 273 274 278 279 280 282
211 200 190 187 189 181 185 203 217 221 218 215 215 217 210 196 188 181 179 178 179 181 183 179 171 197 203 202 236 250 263 272 272 275 275 276 278 280 281 280 282 285 287
183 178 180 181 180 178 186 195 202 212 212 222 219 210 194 180 177 180 181 177 175 170 164 170 192 212 227 252 264 266 267 273 278 279 280 280 282 284 285 286 287 289 287
187 176 176 176 174 173 174 176 172 183 169 175 193 191 171 179 170 171 159 135 144 168 187 202 214 234 242 250 242 244 268 282 283 281 285 288 287 287 288 287 286 288 287
184 169 165 166 166 165 156 164 155 134 129 133 144 153 159 146 137 136 142 161 177 185 188 218 237 226 231 247 252 261 266 266 282 294 293 292 291 291 291 291 286 286 287
147 138 155 161 157 148 147 138 134 129 125 118 118 125 129 132 135 137 140 135 100 108 158 169 195 239 255 263 277 287 286 293 300 298 297 295 293 293 291 288 286 286 288
156 153 147 145 141 133 130 129 124 122 120 118 117 115 114 116 113 111 117 128 109 97 80 71 22 326 293 312 292 301 300 302 299 304 303 302 298 296 291 287 286 287 288
115 119 123 122 119 116 114 108 108 112 112 111 110 110 106 106 109 104 96 85 79 75 54 27 336 310 307 316 309 309 309 305 302 301 298 296 296 291 289 288 287 287 286
104 109 110 112 113 114 113 111 111 112 116 120 125 132 136 119 102 91 79 62 37 351 333 341 334 316 322 317 312 306 304 302 300 298 298 297 295 292 288 286 286 285 285
101 102 104 104 108 107 104 105 107 107 106 106 110 120 121 81 66 57 37 344 326 315 314 310 314 313 314 309 310 307 305 303 302 301 298 296 295 293 290 288 287 287 287
93 95 98 99 97 100 102 103 104 106 106 102 101 97 83 77 65 24 349 330 320 315 309 307 308 304 306 305 306 306 304 302 299 299 298 297 295 292 289 288 289 290 290
89 90 93 94 96 94 89 88 93 95 84 77 73 70 62 50 28 350 321 316 315 318 317 315 311 307 307 309 309 306 304 301 301 301 299 293 289 290 291 290 290 289 289
84 85 83 83 83 81 82 79 76 75 76 75 70 65 54 39 19 354 335 324 320 318 317 317 315 314 315 315 313 311 310 309 307 304 302 301 296 292 291 293 292 292 292
78 79 82 83 83 82 81 80 78 75 74 68 59 49 39 9 344 333 323 321 325 325 323 320 316 314 314 314 313 312 310 307 306 304 304 305 304 300 296 294 292 290 291
Height
1446 1450 1453 1457 1462 1467 1470 1474 1479 1485 1489 1494 1499 1504 1507 1510 1515 1516 1517 1519 1520 1520 1519 1520 1520 1521 1522 1523 1523 1522 1523 1524 1527 1527 1530 1527 1528 1528 1528 1530 1530 1530 1529
1438 1442 1444 1450 1456 1459 1461 1465 1472 1476 1482 1487 1491 1496 1499 1502 1505 1507 1507 1508 1510 1508 1511 1508 1509 1513 1513 1514 1513 1514 1514 1517 1519 1519 1521 1521 1521 1520 1522 1521 1522 1522 1522
1432 1436 1439 1442 1445 1448 1453 1460 1465 1470 1474 1479 1484 1485 1489 1492 1495 1496 1497 1498 1499 1500 1500 1499 1497 1496 1499 1504 1505 1503 1506 1508 1511 1511 1511 1512 1514 1513 1514 1515 1515 1515 1514
1424 1427 1430 1432 1436 1441 1446 1451 1456 1461 1464 1468 1471 1474 1478 1481 1483 1484 1486 1487 1488 1490 1491 1490 1488 1491 1492 1493 1494 1495 1496 1497 1500 1503 1504 1504 1506 1506 1508 1509 1510 1508 1508
1415 1418 1420 1425 1430 1435 1438 1442 1446 1450 1454 1458 1461 1463 1467 1470 1471 1473 1473 1476 1478 1480 1480 1481 1482 1483 1485 1485 1484 1484 1486 1487 1492 1494 1497 1497 1499 1499 1501 1504 1503 1501 1500
1406 1408 1414 1417 1420 1424 1429 1434 1438 1440 1445 1450 1453 1455 1456 1458 1461 1465 1466 1467 1468 1470 1471 1472 1472 1473 1474 1474 1474 1477 1479 1480 1484 1487 1488 1491 1492 1493 1494 1495 1495 1494 1494
1397 1401 1404 1408 1411 1414 1420 1424 1428 1432 1436 1438 1443 1446 1448 1449 1451 1456 1458 1458 1458 1460 1461 1463 1463 1463 1464 1465 1465 1469 1471 1473 1477 1479 1481 1484 1486 1487 1488 1488 1488 1489 1487
1390 1393 1396 1400 1403 1407 1410 1413 1417 1421 1424 1429 1432 1436 1439 1439 1441 1446 1448 1448 1448 1450 1451 1452 1452 1453 1454 1456 1459 1461 1464 1467 1471 1474 1475 1478 1480 1480 1481 1481 1481 1480 1479
1382 1384 1388 1391 1394 1398 1401 1404 1409 1412 1415 1419 1422 1426 1428 1429 1432 1435 1437 1437 1439 1440 1441 1442 1444 1446 1448 1452 1450 1458 1459 1463 1467 1470 1471 1472 1473 1473 1474 1474 1474 1474 1472
1372 1376 1381 1385 1388 1391 1394 1398 1400 1405 1410 1413 1415 1417 1419 1421 1423 1425 1427 1429 1430 1431 1433 1433 1436 1439 1443 1448 1452 1454 1457 1459 1462 1465 1465 1466 1466 1465 1466 1466 1466 1466 1467
1366 1368 1372 1376 1379 1384 1389 1390 1393 1396 1400 1405 1408 1410 1412 1413 1415 1417 1419 1421 1422 1423 1425 1428 1432 1436 1439 1443 1450 1452 1454 1455 1457 1459 1460 1460 1460 1459 1459 1459 1459 1458 1458
1357 1358 1363 1369 1371 1375 1384 1385 1387 1391 1393 1397 1400 1403 1404 1406 1407 1410 1413 1416 1418 1420 1422 1426 1431 1434 1433 1442 1446 1448 1450 1452 1454 1455 1456 1456 1455 1454 1454 1453 1452 1451 1450
1358 1358 1358 1363 1368 1368 1378 1385 1384 1386 1389 1392 1394 1396 1399 1401 1403 1407 1411 1413 1417 1421 1424 1424 1429 1435 1437 1441 1442 1443 1447 1449 1450 1451 1451 1450 1449 1448 1447 1446 1445 1444 1441
1355 1357 1359 1358 1365 1364 1370 1379 1383 1383 1384 1386 1389 1392 1395 1399 1402 1405 1408 1412 1415 1418 1423 1423 1429 1438 1437 1437 1439 1442 1444 1445 1446 1445 1445 1444 1442 1442 1441 1440 1438 1436 1432
1355 1356 1359 1362 1362 1362 1368 1373 1376 1382 1382 1384 1386 1390 1392 1397 1402 1406 1410 1413 1415 1419 1422 1427 1432 1436 1435 1435 1436 1438 1438 1439 1439 1439 1439 1439 1438 1436 1435 1433 1430 1428 1426
1357 1358 1361 1360 1360 1363 1365 1366 1372 1380 1380 1383 1388 1393 1397 1401 1405 1408 1412 1416 1420 1423 1424 1429 1433 1434 1433 1433 1435 1436 1434 1434 1434 1433 1433 1433 1432 1431 1429 1427 1425 1423 1420
1359 1360 1362 1364 1364 1366 1365 1370 1371 1376 1378 1385 1390 1395 1400 1403 1407 1409 1412 1417 1420 1424 1426 1428 1429 1430 1430 1431 1432 1432 1431 1429 1428 1428 1428 1427 1426 1425 1423 1421 1419 1417 1414
1362 1362 1365 1368 1367 1366 1371 1371 1374 1373 1379 1387 1394 1398 1402 1405 1409 1412 1414 1417 1420 1422 1424 1426 1427 1427 1428 1429 1428 1428 1427 1427 1426 1425 1424 1422 1420 1418 1416 1415 1414 1411 1409
1360 1364 1367 1367 1371 1373 1376 1379 1379 1384 1387 1392 1398 1403 1405 1408 1411 1414 1417 1419 1421 1422 1423 1424 1425 1425 1425 1425 1425 1424 1423 1423 1421 1420 1419 1417 1415 1413 1411 1409 1407 1405 1403
1368 1370 1370 1372 1378 1383 1383 1387 1388 1389 1393 1396 1402 1408 1410 1412 1414 1415 1416 1417 1419 1420 1421 1422 1422 1422 1422 1422 1422 1421 1421 1420 1419 1417 1415 1413 1410 1408 1405 1403 1401 1399 1398
1378 1380 1380 1384 1386 1389 1389 1389 1397 1398 1399 1399 1404 1410 1412 1412 1413 1414 1413 1414 1416 1417 1418 1419 1420 1420 1420 1420 1419 1418 1416 1415 1414 1411 1409 1407 1404 1401 1399 1397 1395 1393 1391
1387 1389 1387 1390 1391 1394 1394 1393 1398 1400 1403 1404 1406 1409 1411 1412 1413 1413 1412 1412 1413 1413 1413 1415 1416 1416 1416 1415 1414 1413 1411 1409 1408 1405 1403 1401 1398 1396 1394 1392 1390 1389 1387
1393 1395 1395 1396 1398 1398 1398 1398 1401 1404 1405 1405 1407 1409 1409 1410 1412 1413 1413 1412 1411 1410 1411 1411 1412 1413 1411 1410 1408 1407 1405 1404 1402 1399 1397 1395 1393 1392 1390 1388 1386 1384 1382
1399 1400 1400 1400 1402 1403 1404 1404 1406 1407 1407 1409 1409 1411 1411 1410 1410 1410 1411 1411 1410 1409 1408 1408 1408 1408 1407 1405 1403 1401 1399 1397 1394 1392 1390 1389 1388 1386 1385 1383 1381 1379 1377
1403 1403 1403 1403 1407 1408 1407 1409 1409 1408 1409 1410 1411 1413 1411 1411 1411 1409 1409 1410 1408 1407 1405 1404 1404 1404 1402 1401 1399 1396 1394 1391 1389 1387 1385 1383 1381 1380 1379 1378 1376 1374 1373
1407 1406 1406 1409 1409 1410 1411 1410 1412 1412 1412 1411 1412 1411 1410 1411 1410 1409 1410 1407 1405 1403 1402 1401 1401 1400 1398 1396 1393 1391 1389 1387 1385 1383 1381 1379 1377 1376 1375 1374 1372 1370 1368